[[{"header":{"parameterUnit":"m.s-1","parameterCategory":1,"la1":30.2992,"la2":30.254,"lo1":-89.0895,"lo2":-89.0443,"dy":0.0025,"dx":0.0025,"nx":19,"ny":19,"refTime":"2026-04-22T03:00:00:Z","depth":0,"parameterNumber":2,"parameterNumberName":"U-component_of_WINDS"},"data":[0,0,0,-3.7398,-3.7399,-3.7426,-3.7426,-3.7478,-3.7479,0,0,0,0,0,0,0,0,0,0,0,-3.7401,-3.7402,-3.7398,-3.7399,-3.7426,-3.7426,-3.7478,-3.7479,0,0,0,0,0,0,0,0,0,0,0,-3.7401,-3.7401,-3.7402,-3.7399,-3.7426,-3.7426,-3.7478,-3.7452,0,0,0,0,0,0,0,0,0,0,-3.7422,-3.7435,-3.7401,-3.7402,-3.7399,-3.7426,-3.7426,-3.745,-3.7453,-3.7474,0,-3.7495,0,-3.7488,-3.7484,-3.7484,0,0,0,-3.7391,-3.7433,-3.743,-3.7402,-3.74,-3.7426,-3.7411,-3.7452,-3.7455,-3.7479,-3.7496,-3.7497,-3.7489,-3.7484,-3.7485,-3.7631,-3.7632,0,0,-3.739,-3.7411,-3.7428,-3.7433,-3.743,-3.7411,-3.7412,-3.7453,-3.7474,-3.7496,-3.7498,-3.749,-3.7485,-3.7485,-3.763,-3.7631,0,0,0,-3.7391,-3.7411,-3.7407,-3.7431,-3.7435,-3.7412,-3.7414,-3.7472,-3.7469,-3.7498,-3.749,-3.7485,-3.7486,-3.7629,-3.7631,-3.7704,0,0,0,-3.7389,-3.7411,-3.7407,-3.742,-3.7434,-3.7454,-3.7431,-3.7466,-3.747,-3.749,-3.7485,-3.7487,-3.7628,-3.763,-3.7699,-3.7734,0,0,0,-3.7395,-3.7412,-3.7419,-3.7421,-3.7434,-3.7452,-3.7451,-3.7466,-3.7466,-3.7484,-3.7487,-3.7627,-3.7629,-3.7695,-3.7728,-3.7779,0,0,0,-3.7408,-3.7484,-3.7421,-3.7502,-3.7434,-3.7498,-3.7451,-3.7497,-3.7522,-3.7485,-3.7628,-3.763,-3.7694,-3.7723,-3.7775,-3.7826,-3.785,0,0,-3.7516,-3.7497,-3.7544,-3.7488,-3.7569,-3.7492,-3.7583,-3.7585,-3.7567,-3.7611,-3.7614,-3.7701,-3.7727,-3.7778,-3.7975,-3.7994,0,0,0,-3.7585,-3.7619,-3.7635,-3.766,-3.7664,-3.767,-3.7655,-3.7657,-3.7693,-3.7594,-3.7733,-3.7748,-3.7777,-3.7801,-3.7817,-3.784,-3.7642,-3.7642,-3.7642,-3.7768,-3.7741,-3.7816,-3.7793,-3.7818,-3.7803,-3.7821,-3.782,-3.7785,-3.7819,-3.7831,-3.7954,-3.7982,-3.7994,-3.8019,-3.7856,-3.7857,-3.7857,-3.7857,-3.7922,-3.7965,-3.7919,-3.7975,-3.7947,-3.7994,-3.7983,-3.7958,-3.7998,-3.7942,-3.7966,-3.7907,-3.8015,-3.8036,-3.7862,-3.7861,-3.7861,-3.786,-3.786,-3.8038,-3.8054,-3.8055,-3.8088,-3.8118,-3.8092,-3.8133,-3.8106,-3.808,-3.8105,-3.8115,-3.8114,-3.8109,-3.8112,-3.8112,-3.8113,-3.8113,-3.8113,-3.8114,-3.8158,-3.8156,-3.8194,-3.8205,-3.8218,-3.8232,-3.8219,-3.8231,-3.8237,-3.8214,-3.8214,-3.8177,-3.8031,-3.7995,-3.812,-3.8119,-3.8118,-3.8117,-3.8117,-3.8324,-3.8283,-3.834,-3.8354,-3.8365,-3.8396,-3.8362,-3.8389,-3.8395,-3.8417,-3.8375,-3.8271,-3.825,-3.8237,-3.8207,-3.838,-3.838,-3.838,-3.838,-3.8422,-3.8409,-3.8462,-3.8485,-3.8505,-3.848,-3.8547,-3.8539,-3.8523,-3.8526,-3.8497,-3.8455,-3.8443,-3.8429,-3.8412,-3.8383,-3.8597,-3.8598,-3.8598,-3.8522,-3.851,-3.8572,-3.8557,-3.8564,-3.8572,-3.8634,-3.8663,-3.8637,-3.8606,-3.8527,-3.8518,-3.8449,-3.8429,-3.8394,-3.8368,-3.8315,0,0]},{"header":{"parameterUnit":"m.s-1","parameterCategory":1,"la1":30.2992,"la2":30.254,"lo1":-89.0895,"lo2":-89.0443,"dy":0.0025,"dx":0.0025,"nx":19,"ny":19,"refTime":"2026-04-22T03:00:00:Z","depth":0,"parameterNumber":3,"parameterNumberName":"V-component_of_WINDS"},"data":[0,0,0,3.8469,3.847,3.8523,3.8523,3.8582,3.8583,0,0,0,0,0,0,0,0,0,0,0,3.8451,3.8451,3.8469,3.847,3.8523,3.8523,3.8582,3.8583,0,0,0,0,0,0,0,0,0,0,0,3.8451,3.8451,3.8451,3.8471,3.8523,3.8523,3.8582,3.8545,0,0,0,0,0,0,0,0,0,0,3.8495,3.8475,3.8451,3.8451,3.8471,3.8523,3.8523,3.8543,3.8547,3.8556,0,3.8564,0,3.8574,3.8586,3.8586,0,0,0,3.8472,3.8472,3.8489,3.8451,3.8471,3.8522,3.85,3.8545,3.855,3.8561,3.8565,3.8567,3.8575,3.8587,3.8587,3.8634,3.8634,0,0,3.8469,3.8458,3.8486,3.8492,3.8485,3.8498,3.8501,3.8548,3.8551,3.8565,3.8569,3.8576,3.8587,3.8587,3.8634,3.8634,0,0,0,3.846,3.8456,3.8472,3.8489,3.8499,3.8499,3.8503,3.8549,3.8555,3.8569,3.8577,3.8587,3.8588,3.8634,3.8634,3.8631,0,0,0,3.8458,3.845,3.8471,3.8464,3.8499,3.8525,3.8503,3.8552,3.8558,3.8577,3.8587,3.8588,3.8634,3.8634,3.8631,3.8632,0,0,0,3.8448,3.8449,3.8456,3.8464,3.8486,3.8525,3.8534,3.8553,3.8562,3.8586,3.8589,3.8634,3.8634,3.8631,3.8631,3.8642,0,0,0,3.8434,3.8452,3.8456,3.8478,3.8485,3.8523,3.8534,3.8562,3.8582,3.8587,3.8634,3.8634,3.8631,3.8631,3.8641,3.8649,3.8651,0,0,3.845,3.8453,3.8467,3.8473,3.8507,3.8516,3.8549,3.8577,3.8589,3.8618,3.8619,3.8631,3.8631,3.8642,3.8664,3.8666,0,0,0,3.8469,3.8479,3.849,3.851,3.8533,3.8552,3.8577,3.8587,3.8613,3.8602,3.8638,3.8638,3.8644,3.8648,3.865,3.8656,3.8635,3.8635,3.8635,3.8475,3.849,3.8515,3.8536,3.8555,3.858,3.8596,3.8615,3.8623,3.8631,3.864,3.8652,3.8657,3.8658,3.8664,3.8645,3.8645,3.8645,3.8645,3.8501,3.8518,3.8529,3.8557,3.8572,3.8595,3.862,3.8625,3.8648,3.8647,3.8653,3.8651,3.8659,3.8665,3.8645,3.8645,3.8645,3.8645,3.8645,3.8507,3.8518,3.8531,3.8562,3.8583,3.8603,3.8625,3.8637,3.8649,3.8655,3.8666,3.8666,3.8668,3.8659,3.8659,3.8659,3.8659,3.8659,3.8659,3.851,3.8525,3.8543,3.8569,3.8583,3.8603,3.8629,3.8642,3.8661,3.8668,3.8668,3.8676,3.8657,3.8652,3.866,3.866,3.866,3.866,3.866,3.8531,3.8528,3.8556,3.8571,3.8602,3.8622,3.8638,3.8665,3.8678,3.8688,3.8694,3.8678,3.8682,3.8681,3.8677,3.8691,3.8691,3.8691,3.8691,3.8538,3.8541,3.8572,3.8595,3.8618,3.8634,3.8664,3.8683,3.8702,3.8711,3.8711,3.8706,3.8705,3.8709,3.8708,3.8705,3.8725,3.8725,3.8725,3.8552,3.8558,3.8582,3.8602,3.8627,3.8648,3.8676,3.87,3.8721,3.8727,3.8718,3.8717,3.871,3.8707,3.8714,3.8711,3.8705,0,0]}]]